Regional Weather Roundup
Issued by NWS

Home | Current Version | Previous Version | Text Only | Print | Product List | Glossary Off
Versions: 1 2 3 4 5 6 7 8 9 10 11 12 13 14 15 16 17 18 19 20 21 22 23 24 25 26 27 28 29 30 31 32 33 34 35 36 37 38 39 40 41 42 43 44 45 46 47 48 49 50

000
ASUS43 KLOT 160210
RWRIL

ILLINOIS REGIONAL WEATHER ROUNDUP
NATIONAL WEATHER SERVICE CHICAGO/ROMEOVILLE IL
900 PM CDT MON SEP 15 2014

NOTE: "FAIR" INDICATES FEW OR NO CLOUDS BELOW 12,000 FEET WITH NO
SIGNIFICANT WEATHER AND/OR OBSTRUCTIONS TO VISIBILITY.

* THESE STATIONS ARE NOT UNDER NWS QUALITY CONTROL. THEY ALSO MAY NOT
  REPORT WEATHER SUCH AS PRECIPITATION OR FOG.

ILZ001-002-007-009-015-016-024-160300-
NORTHWEST ILLINOIS

CITY           SKY/WX    TMP DP  RH WIND       PRES   REMARKS
MOLINE         CLEAR     54  48  80 CALM      30.20R
STERLING*      CLEAR     48  46  93 NW3       30.19R
SAVANNA*       CLEAR     50  48  92 CALM      30.19R FOG
$$

ILZ003-004-008-010-011-017-018-160300-
NORTH CENTRAL ILLINOIS

CITY           SKY/WX    TMP DP  RH WIND       PRES   REMARKS
ROCKFORD       PTCLDY    50  46  86 N6        30.19R
FREEPORT*      CLEAR     46  44  95 NW3       30.21R
ROCHELLE*      CLEAR     48  47  96 NW5       30.18R
DE KALB*       CLEAR     49  47  93 N6        30.18R
PERU*          MOCLDY    53  52  95 N6        30.17R
$$

ILZ005-006-012>014-019>023-160300-
NORTHEAST ILLINOIS

CITY           SKY/WX    TMP DP  RH WIND       PRES   REMARKS
CHICAGO-OHARE  PTCLDY    55  50  83 N8        30.15R
CHICAGO-MIDWAY CLOUDY    58  52  80 N13       30.14R
AURORA         CLOUDY    55  51  86 N8        30.16R
LANSING*       CLOUDY    55  54  97 CALM      30.13R FOG
JOLIET*        CLOUDY    55  53  95 CALM      30.16R FOG
WAUKEGAN       CLEAR     50  47  89 NW3       30.15R
DUPAGE AIRPORT CLOUDY    55  51  86 N7        30.15R
KANKAKEE*      CLOUDY    54  53  98 CALM      30.14R FOG
WHEELING       CLEAR     53  48  83 N6        30.17R
MORRIS*        CLOUDY    55  55 100 N3        30.15R FOG
ROMEOVILLE*    CLOUDY    55  55  99 N8        30.14R
NORTHERLY ISL    N/A     58  52  80 MISG        N/A
$$

LMZ740>746-160300-
SOUTHERN LAKE MICHIGAN

STATION/POSITION SKY/WX   TEMP    WIND        PRES    VSBY  WAVE
                          AIR SEA DIR/SP/G                  HT/PER
                          (F)     (DEG/KT/KT) (MB)    (MI)  (FT/S)
SOUTHERN BUOY              57 64  350/ 12/ 14 1020.5R         2/ 4
WAUKEGAN HARBOR            53     330/  7/  9   N/A
HARRISON CRIB              58      10/ 16/ 18   N/A
BURNHAM HARBOR             58     360/  8/ 12   N/A
CALUMET HARBOR             58     340/  8/ 12 1019.1R
MICHIGAN CITY              60     350/ 16/ 18   N/A
MICHIGAN CITY 6N           60 64   10/ 12/ 16   N/A           2/ 2
ST. JOSEPH                 60 66   20/ 16/ 19   N/A           3/ 3
$$

ILZ025>027-034>036-040-047-049-050-058-095>099-160300-
WEST-CENTRAL ILLINOIS

CITY           SKY/WX    TMP DP  RH WIND       PRES   REMARKS
QUINCY         CLOUDY    59  54  83 N15       30.17R
GALESBURG*     MOCLDY    54  52  93 N7        30.19R
MACOMB*        CLOUDY    56  53  87 N9        30.20R
JACKSONVILLE*  MOCLDY    58  57  97 N5        30.16R FOG
PITTSFIELD*    CLOUDY    60  58  91 CALM      30.16R
$$

ILZ028>032-037-038-041>044-048-051>054-059>061-160300-
CENTRAL ILLINOIS

CITY           SKY/WX    TMP DP  RH WIND       PRES   REMARKS
PONTIAC        MOCLDY    55  55 100 CALM      30.14S FOG
DECATUR        CLOUDY    59  57  93 N13       30.13R
PEORIA         CLOUDY    59  55  87 N5        30.16R
LACON*         CLOUDY    55  53  92 N9        30.16R
LINCOLN*       CLOUDY    58  56  93 N6        30.14R
SPRINGFIELD    CLEAR     57  55  93 N5        30.15R
TAYLORVILLE    CLOUDY    57  55  94 N10       30.13R
$$

ILZ033-039-045-046-055>057-062-063-160300-
EAST-CENTRAL ILLINOIS

CITY           SKY/WX    TMP DP  RH WIND       PRES   REMARKS
CHAMPAIGN      CLOUDY    58  58 100 N8        30.12R FOG
DANVILLE*      CLOUDY    55  55 100 CALM      30.10S FOG
RANTOUL*       CLOUDY    59  56  92 NW3       30.13R FOG
MATTOON        CLOUDY    60  58  92 N9        30.11R FOG
PARIS*         CLOUDY    58  58 100 CALM      30.12S FOG
$$

ILZ079-100>102-160300-
SOUTHWEST ILLINOIS

CITY           SKY/WX    TMP DP  RH WIND       PRES   REMARKS
ALTON          CLOUDY    61  59  94 NW3       30.14R
BELLEVILLE     CLOUDY    63  63  99 W13       30.11R
CAHOKIA*       CLOUDY    64  61  90 N17G24    30.12R
SPARTA*        CLOUDY    66  64  94 N9G17     30.11R
$$

ILZ064>066-069>071-074>076-080>082-084>086-088>090-092>094-160300-
SOUTH-CENTRAL ILLINOIS

CITY           SKY/WX    TMP DP  RH WIND       PRES   REMARKS
CARBONDALE     CLOUDY    70  66  87 W3        30.08R
CAIRO*         CLOUDY    71  64  76 SW6       30.09R
EFFINGHAM*     CLOUDY    61  58  91 N6G16     30.10R FOG
MARION         LGT RAIN  73  66  78 SW6       30.08R
MT. VERNON     CLOUDY    66  63  88 CALM      30.09R
CENTRALIA*     RAIN      63  60  91 N10G16    30.10R
SALEM*         DRIZZLE   65  64  96 N10G17    30.11R
METROPOLIS*    MOCLDY    69  64  83 S3        30.08R
$$

ILZ067-068-072-073-078-083-087-091-160300-
SOUTHEAST ILLINOIS

CITY           SKY/WX    TMP DP  RH WIND       PRES   REMARKS
LAWRENCEVILLE  LGT RAIN  63  61  93 CALM      30.08R FOG
FLORA*         DRIZZLE   64  64  97 NW8       30.09R
FAIRFIELD*     LGT RAIN N/A N/A N/A CALM      30.07R
HARRISBURG*    CLOUDY    70  64  82 CALM      30.08R
ROBINSON*      DRIZZLE   62  61  98 CALM      30.10R
CARMI*         CLOUDY    69  64  85 S3        30.05S
$$

ABBREVIATIONS USED IN REMARKS
   TC - TEMPERATURE IN CELSIUS
  WCI - WIND CHILL INDEX
   HX - HEAT INDEX
  VSB - VISIBILITY
$$




USA.gov is the U.S. government's official web portal to all federal, state and local government web resources and services.